User: anonymous   Login
Location: McLaughlin
(0.0000°N, 0.0000°E)
Time: 03:46:54
(UTC+00:00)
Language:

Gurwin Techsat 1B - Orbit

View from above orbital plane
View from above orbital plane
View from above satellite
View from above satellite

Ground track
Ground track

The orbit data is extracted from the following two-line orbital elements,

1 25397U 98043D   19264.42834615 -.00000010  00000-0  14819-4 0  9994
2 25397  98.6939 203.4476 0002286 105.5198 254.6233 14.23670719101350
Epoch (UTC): 21 September 2019 10:16:49
Eccentricity: 0.0002286
inclination: 98.6939°
perigee height: 811 km
apogee height: 814 km
right ascension of ascending node: 203.4476°
argument of perigee: 105.5198°
revolutions per day: 14.23670719
mean anomaly at epoch: 254.6233°
orbit number at epoch: 10135

The dashed part of the orbit path shows where the satellite is in the earth's shadow,  

DLR